Regional Weather Roundup
Issued by NWS

Home | Current Version | Previous Version | Graphics & Text | Print | Product List | Glossary On
Versions: 1 2 3 4 5 6 7 8 9 10 11 12 13 14 15 16 17 18 19 20 21 22 23 24 25 26 27 28 29 30 31 32 33 34 35 36 37 38 39 40 41 42 43 44 45 46 47 48 49 50
000
ASUS43 KFSD 280902
RWRSD

WEATHER ROUNDUP FOR SOUTH DAKOTA
NATIONAL WEATHER SERVICE SIOUX FALLS SD
400 AM CDT WED JUN 28 2017

NOTE: "FAIR" INDICATES FEW OR NO CLOUDS BELOW 12,000 FEET WITH NO
SIGNIFICANT WEATHER AND/OR OBSTRUCTIONS TO VISIBILITY.


SDZ001>005-009-010-012>017-281000-
NORTHWEST AND NORTH CENTRAL SOUTH DAKOTA

CITY           SKY/WX    TMP DP  RH WIND       PRES   REMARKS
BUFFALO          N/A     63  53  70 NW20      29.67R
FAITH            N/A     66  54  65 NW18      29.67R
MOBRIDGE       CLOUDY    69  56  62 NW14      29.53R
$$

SDZ012>016-024>037-041>051-057-063-072>074-281000-
SOUTHWEST AND SOUTH CENTRAL SOUTH DAKOTA

CITY           SKY/WX    TMP DP  RH WIND       PRES   REMARKS
RAPID CTY ARPT CLEAR     63  50  62 N13       29.75R
PIERRE         LGT RAIN  70  55  59 W15       29.57R
CUSTER         CLOUDY    52  42  69 VRB3      29.86S
PHILIP         PTCLDY    63  57  81 W10       29.65S
PINE RIDGE     CLEAR     53  52  96 SW5       29.78R
SPEARFISH      FAIR      59  50  72 W7        29.81R
WINNER         FAIR      70  53  54 W12       29.63R
$$

SDZ004>011-016>023-039-040-281000-
NORTHEAST SOUTH DAKOTA

CITY           SKY/WX    TMP DP  RH WIND       PRES   REMARKS
ABERDEEN       CLOUDY    66  60  81 S16       29.46F
WATERTOWN      CLOUDY    68  62  81 S16G25    29.48F
BROOKINGS      CLOUDY    64  62  93 S12       29.53F
SISSETON         N/A     67  62  84 S8        29.43F
$$

SDZ017-020-022-023-036>040-048>070-281000-
SOUTHEAST SOUTH DAKOTA

CITY           SKY/WX    TMP DP  RH WIND       PRES   REMARKS
SIOUX FALLS    CLOUDY    66 N/A N/A SW5       29.55F
HURON          CLOUDY    68  60  75 SW12      29.50F
CHAMBERLAIN    CLOUDY    69  55  60 CALM      29.59R
MITCHELL       CLOUDY    68  61  78 S10       29.54F
YANKTON        CLOUDY    66  64  93 S9        29.60R
$$

ABBREVIATIONS USED IN REMARKS
   TC - TEMPERATURE IN CELSIUS
  WCI - WIND CHILL INDEX
   HX - HEAT INDEX
  VSB - VISIBILITY




USA.gov is the U.S. government's official web portal to all federal, state and local government web resources and services.